Regional Weather Roundup
Issued by NWS

Home | Current Version | Previous Version | Text Only | Print | Product List | Glossary Off
Versions: 1 2 3 4 5 6 7 8 9 10 11 12 13 14 15 16 17 18 19 20 21 22 23 24 25 26 27 28 29 30 31 32 33 34 35 36 37 38 39 40 41 42 43 44 45 46 47 48 49 50

000
ASUS43 KOAX 302110
RWRNE
WEATHER ROUNDUP FOR NEBRASKA
NATIONAL WEATHER SERVICE OMAHA NE
400 PM CDT SAT MAY 30 2015

NOTES: SATELLITE DATA IS BEING USED TO AUGMENT CLOUD COVER ABOVE
       12000 FEET.
       "FAIR" INDICATES FEW OR NO CLOUDS BELOW 12,000 FEET WITH NO
       SIGNIFICANT WEATHER AND/OR OBSTRUCTIONS TO VISIBILITY.

  * THESE STATIONS DO NOT REPORT WEATHER SUCH AS RAIN...SNOW OR FOG.

NEZ001>004-019>022-054>056-302200-
NEBRASKA PANHANDLE

CITY           SKY/WX    TMP DP  RH WIND       PRES   REMARKS
SCOTTSBLUFF    SUNNY     69  52  54 SE10G24   30.19F
ALLIANCE       SUNNY     64  48  56 SE12G18   30.22F
CHADRON        SUNNY     67  48  50 S12       30.18F
KIMBALL          N/A    N/A N/A N/A MISG        N/A
SIDNEY         SUNNY     62  48  60 S6        30.25F
$$

NEZ057>060-069>072-079>082-302200-
SOUTHWEST NEBRASKA

CITY           SKY/WX    TMP DP  RH WIND       PRES   REMARKS
NORTH PLATTE   SUNNY     64  33  31 VRB6      30.26F
IMPERIAL       SUNNY     63  37  38 CALM      30.25F
LEXINGTON      SUNNY     64  38  38 NE6       30.24F
MCCOOK         SUNNY     65  35  33 E8G17     30.25F
OGALLALA       SUNNY     62  38  41 NE3       30.25F
$$

NEZ005>010-023>029-035>040-094-302200-
NORTH CENTRAL NEBRASKA

CITY           SKY/WX    TMP DP  RH WIND       PRES   REMARKS
VALENTINE      SUNNY     61  32  33 NE8       30.27F
AINSWORTH      SUNNY     60  37  42 N5        30.27F
BROKEN BOW     SUNNY     65  34  31 MISG      30.24F
O`NEILL        SUNNY     61  42  49 NE9       30.26S
ORD            SUNNY     64  38  38 NE12      30.23S
THEDFORD       SUNNY     63  34  34 NE6       30.28S
$$

NEZ041-046>049-061>064-073>077-083>087-302200-
SOUTH CENTRAL NEBRASKA

CITY           SKY/WX    TMP DP  RH WIND       PRES   REMARKS
GRAND ISLAND   SUNNY     66  40  38 N9        30.23S
AURORA         SUNNY     68  36  30 NE7G16    30.21F
HASTINGS       SUNNY     65  45  48 N12       30.22F
HEBRON         SUNNY     68  43  40 NE8G18    30.18F
HOLDREGE       SUNNY     64  39  40 N8        30.23F
KEARNEY *      SUNNY     64  43  45 N8        30.23F
YORK           SUNNY     66  39  37 NE15G22   30.20F
$$

NEZ011>018-030>034-042>045-302200-
NORTHEAST NEBRASKA

CITY           SKY/WX    TMP DP  RH WIND       PRES   REMARKS
NORFOLK        SUNNY     66  40  38 N15       30.22S
ALBION         SUNNY     64  43  47 N12G18    30.23S
BLAIR          SUNNY     66  41  39 N14       30.17F
COLUMBUS *     SUNNY     68  37  32 NE10G20   30.22S
FREMONT        SUNNY     68  40  35 NE10      30.19F
TEKAMAH        SUNNY     70  41  34 NE17G25   30.18S
WAYNE          SUNNY     64  43  46 N15       30.22F
$$

NEZ050>053-065>068-078-088>093-302200-
SOUTHEAST NEBRASKA

CITY           SKY/WX    TMP DP  RH WIND       PRES   REMARKS
LINCOLN        MOSUNNY   69  44  40 N15       30.19S
OMAHA EPPLEY   MOSUNNY   69  45  41 N13G18    30.16F
BEATRICE       CLOUDY    65  47  52 N15       30.18S
FALLS CITY     CLOUDY    64  53  67 N12       30.14F
NEBRASKA CITY  CLOUDY    64  46  53 N12G18    30.16S
PLATTSMOUTH    MOSUNNY   65  45  47 N7G16     30.17S
$$

NEZ044-045-051>053-067-302200-
OMAHA AREA

CITY           SKY/WX    TMP DP  RH WIND       PRES   REMARKS
OMAHA EPPLEY   MOSUNNY   69  45  41 N13G18    30.16F
BLAIR          SUNNY     66  41  39 N14       30.17F
FREMONT        SUNNY     68  40  35 NE10      30.19F
MILLARD        PTSUNNY   66  45  46 N3        30.17F
OFFUTT AFB     SUNNY     67  47  47 VRB7      30.16F
PLATTSMOUTH    MOSUNNY   65  45  47 N7G16     30.17S
WAHOO          FAIR      69  40  34 N16G25    30.19S
$$


USA.gov is the U.S. government's official web portal to all federal, state and local government web resources and services.